Time,TemperatureF,DewpointF,PressureIn,WindDirection,WindDirectionDegrees,WindSpeedMPH,WindSpeedGustMPH,Humidity,HourlyPrecipIn,Conditions,Clouds,dailyrainin,SoftwareType,DateUTC
2015-08-31 00:00:00,66.7,62.0,29.96,WSW,241,0.0,3.0,86,0.00,,,0.00,weatherlink.com 1.10,2015-08-31 04:00:00,
2015-08-31 00:15:00,66.6,62.0,29.96,WSW,241,0.0,2.0,86,0.00,,,0.00,weatherlink.com 1.10,2015-08-31 04:15:00,
2015-08-31 00:30:00,66.1,62.0,29.95,WSW,241,0.0,3.0,86,0.00,,,0.00,weatherlink.com 1.10,2015-08-31 04:30:00,
2015-08-31 00:45:00,66.2,62.0,29.95,WSW,241,0.0,3.0,86,0.00,,,0.00,weatherlink.com 1.10,2015-08-31 04:45:00,
2015-08-31 01:00:00,65.4,62.0,29.95,WSW,241,0.0,3.0,88,0.00,,,0.00,weatherlink.com 1.10,2015-08-31 05:00:00,
2015-08-31 01:15:00,65.6,62.0,29.95,WSW,242,0.0,3.0,88,0.00,,,0.00,weatherlink.com 1.10,2015-08-31 05:15:00,
2015-08-31 01:30:00,66.5,63.0,29.94,SW,234,0.0,6.0,87,0.00,,,0.00,weatherlink.com 1.10,2015-08-31 05:30:00,
2015-08-31 01:45:00,66.5,63.0,29.94,SW,235,1.0,5.0,87,0.00,,,0.00,weatherlink.com 1.10,2015-08-31 05:45:00,
2015-08-31 02:00:00,66.4,63.0,29.94,WSW,242,2.0,5.0,87,0.00,,,0.00,weatherlink.com 1.10,2015-08-31 06:00:00,
2015-08-31 02:15:00,67.0,62.0,29.93,WSW,240,5.0,9.0,85,0.00,,,0.00,weatherlink.com 1.10,2015-08-31 06:15:00,
2015-08-31 02:45:00,66.5,63.0,29.93,WSW,246,3.0,8.0,87,0.00,,,0.00,weatherlink.com 1.10,2015-08-31 06:45:00,
2015-08-31 03:00:00,66.0,62.0,29.93,WSW,246,5.0,6.0,87,0.00,,,0.00,weatherlink.com 1.10,2015-08-31 07:00:00,
2015-08-31 03:15:00,65.8,62.0,29.92,SW,230,0.0,5.0,88,0.00,,,0.00,weatherlink.com 1.10,2015-08-31 07:15:00,
2015-08-31 03:45:00,65.4,63.0,29.92,SW,235,2.0,7.0,90,0.00,,,0.00,weatherlink.com 1.10,2015-08-31 07:45:00,
2015-08-31 04:00:00,65.5,63.0,29.92,SW,233,3.0,6.0,91,0.00,,,0.00,weatherlink.com 1.10,2015-08-31 08:00:00,
2015-08-31 04:15:00,65.5,63.0,29.92,SW,225,3.0,7.0,91,0.00,,,0.00,weatherlink.com 1.10,2015-08-31 08:15:00,
2015-08-31 04:30:00,65.0,63.0,29.92,SW,221,2.0,7.0,92,0.00,,,0.00,weatherlink.com 1.10,2015-08-31 08:30:00,
2015-08-31 04:45:00,65.0,63.0,29.91,SW,226,3.0,7.0,93,0.00,,,0.00,weatherlink.com 1.10,2015-08-31 08:45:00,
2015-08-31 05:00:00,64.9,63.0,29.91,SW,227,0.0,8.0,94,0.00,,,0.00,weatherlink.com 1.10,2015-08-31 09:00:00,
2015-08-31 05:15:00,64.8,63.0,29.91,SW,219,1.0,6.0,94,0.00,,,0.00,weatherlink.com 1.10,2015-08-31 09:15:00,
2015-08-31 05:30:00,64.7,63.0,29.91,SW,225,2.0,7.0,94,0.00,,,0.00,weatherlink.com 1.10,2015-08-31 09:30:00,
2015-08-31 05:45:00,64.6,63.0,29.91,SW,225,4.0,6.0,94,0.00,,,0.00,weatherlink.com 1.10,2015-08-31 09:45:00,
2015-08-31 06:00:00,64.3,63.0,29.91,SW,225,2.0,4.0,95,0.00,,,0.00,weatherlink.com 1.10,2015-08-31 10:00:00,
2015-08-31 06:15:00,64.1,63.0,29.92,SW,225,0.0,4.0,95,0.00,,,0.00,weatherlink.com 1.10,2015-08-31 10:15:00,
2015-08-31 06:30:00,63.8,62.0,29.92,SW,225,0.0,3.0,95,0.00,,,0.00,weatherlink.com 1.10,2015-08-31 10:30:00,
2015-08-31 06:45:00,63.8,63.0,29.92,SW,225,0.0,3.0,96,0.00,,,0.00,weatherlink.com 1.10,2015-08-31 10:45:00,
2015-08-31 07:00:00,63.7,63.0,29.93,SW,225,0.0,0.0,96,0.00,,,0.00,weatherlink.com 1.10,2015-08-31 11:00:00,